Regional Weather Roundup
Issued by NWS

Home | Current Version | Previous Version | Graphics & Text | Print | Product List | Glossary On
Versions: 1 2 3 4 5 6 7 8 9 10 11 12 13 14 15 16 17 18 19 20 21 22 23 24 25 26 27 28 29 30 31 32 33 34 35 36 37 38 39 40 41 42 43 44 45 46 47 48 49 50
000
ASUS43 KLOT 211410
RWRIL

ILLINOIS REGIONAL WEATHER ROUNDUP
NATIONAL WEATHER SERVICE CHICAGO/ROMEOVILLE IL
900 AM CDT SUN SEP 21 2014

NOTE: "FAIR" INDICATES FEW OR NO CLOUDS BELOW 12,000 FEET WITH NO
SIGNIFICANT WEATHER AND/OR OBSTRUCTIONS TO VISIBILITY.

* THESE STATIONS ARE NOT UNDER NWS QUALITY CONTROL. THEY ALSO MAY NOT
  REPORT WEATHER SUCH AS PRECIPITATION OR FOG.

ILZ001-002-007-009-015-016-024-211500-
NORTHWEST ILLINOIS

CITY           SKY/WX    TMP DP  RH WIND       PRES   REMARKS
MOLINE         SUNNY     61  50  67 NW17G32   29.95R
STERLING*      MOSUNNY   61  52  72 NW17G25   29.91R
SAVANNA*       PTSUNNY   59  50  71 NW13G18   29.92R
$$

ILZ003-004-008-010-011-017-018-211500-
NORTH CENTRAL ILLINOIS

CITY           SKY/WX    TMP DP  RH WIND       PRES   REMARKS
ROCKFORD       PTSUNNY   58  51  78 NW17G23   29.89R
ROCHELLE*      MOSUNNY   58  51  78 NW16G22   29.89R
DE KALB*       CLOUDY    56  51  82 NW15G23   29.87R
PERU*          SUNNY     61  53  76 W15G22    29.90S
$$

ILZ005-006-012>014-019>023-211500-
NORTHEAST ILLINOIS

CITY           SKY/WX    TMP DP  RH WIND       PRES   REMARKS
CHICAGO-OHARE  PTSUNNY   60  50  69 NW16G24   29.82R
CHICAGO-MIDWAY PTSUNNY   62  52  69 W18G26    29.83R
AURORA         CLOUDY    59  51  75 W13G23    29.86R
LANSING*       PTSUNNY   60  52  74 W10G17    29.83S
JOLIET*        MOSUNNY   61  52  72 NW14G23   29.86S
WAUKEGAN       CLOUDY    58  50  75 VRB7G22   29.80R
DUPAGE AIRPORT PTSUNNY   59  51  75 W17       29.84R
KANKAKEE*      SUNNY     63  54  72 W14G23    29.87S
WHEELING       CLOUDY    60  50  69 W15G23    29.83R
MORRIS*        SUNNY     61  55  81 W15       29.86R
ROMEOVILLE*    CLOUDY    59  51  74 NW17G26   29.85R
NORTHERLY ISL    N/A     61  49  64 W12         N/A
$$

LMZ740>746-211500-
SOUTHERN LAKE MICHIGAN

STATION/POSITION SKY/WX   TEMP    WIND        PRES    VSBY  WAVE
                          AIR SEA DIR/SP/G                  HT/PER
                          (F)     (DEG/KT/KT) (MB)    (MI)  (FT/S)
SOUTHERN BUOY              59 63  270/ 21/ 27 1007.0R         5/ 5
WAUKEGAN HARBOR            59     280/ 14/ 20   N/A
HARRISON CRIB              59     290/ 22/ 28   N/A
BURNHAM HARBOR             60     300/ 13/ 21   N/A
CALUMET HARBOR             61     270/  6/ 14 1008.8R
MICHIGAN CITY              60     250/ 30/ 36   N/A
MICHIGAN CITY 6N           61 65  290/ 21/ 29   N/A           8/ 5
ST. JOSEPH                 61 65  270/ 23/ 31   N/A           8/ 6
$$

ILZ025>027-034>036-040-047-049-050-058-095>099-211500-
WEST-CENTRAL ILLINOIS

CITY           SKY/WX    TMP DP  RH WIND       PRES   REMARKS
QUINCY         SUNNY     63  53  70 W10       30.03R
GALESBURG*     SUNNY     61  54  77 W15G24    29.97R
MACOMB*        SUNNY     61  54  77 NW12G21   30.02R
JACKSONVILLE*  SUNNY     65  56  72 W10G18    30.01R
PITTSFIELD*    SUNNY     65  53  66 W12       30.04R
$$

ILZ028>032-037-038-041>044-048-051>054-059>061-211500-
CENTRAL ILLINOIS

CITY           SKY/WX    TMP DP  RH WIND       PRES   REMARKS
PONTIAC        SUNNY     64  54  68 W12G22    29.89R
DECATUR        SUNNY     63  53  70 W12       29.96S
PEORIA         SUNNY     63  52  67 W14G22    29.95R
LACON*         SUNNY     61  52  71 W9        29.91S
LINCOLN*       SUNNY     64  55  71 W6        29.94S
SPRINGFIELD    SUNNY     64  55  72 W13       29.98S
TAYLORVILLE    SUNNY     63  54  72 W9        29.99R
$$

ILZ033-039-045-046-055>057-062-063-211500-
EAST-CENTRAL ILLINOIS

CITY           SKY/WX    TMP DP  RH WIND       PRES   REMARKS
CHAMPAIGN      SUNNY     62  55  77 W14       29.94S
DANVILLE*      SUNNY     63  53  72 W12G17    29.89S
RANTOUL*       SUNNY     64  54  70 W13G18    29.92S
MATTOON        SUNNY     63  55  75 W12       29.95S
PARIS*         SUNNY     64  56  76 W8        29.94S
$$

ILZ079-100>102-211500-
SOUTHWEST ILLINOIS

CITY           SKY/WX    TMP DP  RH WIND       PRES   REMARKS
ALTON          SUNNY     64  55  72 W9        30.03R
BELLEVILLE     SUNNY     67  55  65 W9        30.02R
CAHOKIA*       SUNNY     70  52  52 NW8       30.03R
SPARTA*        SUNNY     67  59  75 N7        30.04R
$$

ILZ064>066-069>071-074>076-080>082-084>086-088>090-092>094-211500-
SOUTH-CENTRAL ILLINOIS

CITY           SKY/WX    TMP DP  RH WIND       PRES   REMARKS
CARBONDALE     MOSUNNY   72  65  78 N12       30.00R
CAIRO*         PTSUNNY   75  70  83 W7        30.00R
EFFINGHAM*     SUNNY     65  51  59 NW8       29.98R
MT. VERNON     SUNNY     66  55  68 NW5       30.01R
CENTRALIA*     SUNNY     67  53  60 N8        30.01R
SALEM*         SUNNY     66  57  72 NW7       30.01R
METROPOLIS*    CLOUDY    72  71  95 W3        29.98R
$$

ILZ067-068-072-073-078-083-087-091-211500-
SOUTHEAST ILLINOIS

CITY           SKY/WX    TMP DP  RH WIND       PRES   REMARKS
LAWRENCEVILLE  SUNNY     68  60  75 NW13      29.96R
FLORA*         SUNNY     67  53  60 NW13      29.99R
FAIRFIELD*     SUNNY    N/A N/A N/A N8        29.98R
HARRISBURG*    PTSUNNY   72  69  92 NW7       29.99R
ROBINSON*      SUNNY     68  61  77 NW8       29.96R
CARMI*         CLOUDY    73  69  88 NW10      29.97R
$$

ABBREVIATIONS USED IN REMARKS
   TC - TEMPERATURE IN CELSIUS
  WCI - WIND CHILL INDEX
   HX - HEAT INDEX
  VSB - VISIBILITY
$$



USA.gov is the U.S. government's official web portal to all federal, state and local government web resources and services.